Hartford, CT

4:22 AM EST on February 07, 2016 (GMT -0500)
Bradley International

Weather History for KBDL - July, 2013

Change the Weather History Date:

Sunday, July 14, 2013

  Actual Average Record
Temperature  
Mean Temperature 82 °F 74 °F  
Max Temperature 92 °F 85 °F 100 °F (1965)
Min Temperature 72 °F 63 °F 51 °F (2009)
Degree Days  
Heating Degree Days 0 0  
Month to date heating degree days 0 0  
Since 1 June heating degree days 33 40  
Since 1 July heating degree days 0 0  
Cooling Degree Days 17 9  
Month to date cooling degree days 207 118  
Year to date cooling degree days 436 301  
Since 1 June cooling degree days 382 262  
Growing Degree Days 32 (Base 50)    
Moisture  
Dew Point 71 °F    
Average Humidity 72    
Maximum Humidity 93    
Minimum Humidity 50    
Precipitation  
Precipitation T in 0.14 in 2.47 in (1975)
Month to date precipitation 2.66 1.75  
Year to date precipitation 29.59 23.91  
Snow  
Snow 0.00 in 0.00 in 0.00 in (2002)
Month to date snowfall 0.0 0.0  
Since 1 June snowfall 0.0 0.0  
Since 1 July snowfall 0.0 0.0  
Snow Depth 0.00 in    
Sea Level Pressure  
Sea Level Pressure 30.26 in    
Wind  
Wind Speed 4 mph (West)    
Max Wind Speed 13 mph    
Max Gust Speed 18 mph    
Visibility 9 miles    
Events Rain    
T = Trace of Precipitation, MM = Missing Value Source: NWS Daily Summary

Daily Weather History Graph

Daily Weather History Graph

Search for Another Location

Airport or City:

Trip Planner

Search our weather history database for the weather conditions in past years. The results will help you decide how hot, cold, wet, or windy it might be!

Date:

Astronomy

Jul. 14, 2013 Rise Set
Actual Time 5:27 AM EDT 8:24 PM EDT
Civil Twilight 4:54 AM EDT 8:58 PM EDT
Nautical Twilight 4:12 AM EDT 9:40 PM EDT
Astronomical Twilight 3:22 AM EDT 10:29 PM EDT
Moon 11:49 AM EDT (7/14) 11:28 PM EDT (7/14)
Length of Visible Light 16h 03m
Length of Day
14h 56m
Waxing Crescent, 35% of the Moon is Illuminated
Jul 14
Waxing Crescent
Jul 15
First Quarter
Jul 22
Full
Jul 29
Last Quarter
Aug 6
New

Hourly Weather History & Observations

Time (EDT) Temp. Heat Index Dew Point Humidity Pressure Visibility Wind Dir Wind Speed Gust Speed Precip Events Conditions
12:04 AM 73.4 °F - 71.6 °F 94% 30.30 in 10.0 mi Calm Calm - 0.00 in Rain Light Rain
12:15 AM 73.4 °F - 71.6 °F 94% 30.29 in 10.0 mi Calm Calm - 0.00 in Rain Light Rain
12:51 AM 73.9 °F - 71.1 °F 91% 30.29 in 6.0 mi SW 3.5 mph - 0.00 in Rain Light Rain
1:38 AM 73.4 °F - 71.6 °F 94% 30.28 in 9.0 mi SW 5.8 mph - 0.00 in   Overcast
1:51 AM 73.0 °F - 71.1 °F 93% 30.28 in 9.0 mi SW 3.5 mph - 0.00 in   Mostly Cloudy
2:12 AM 73.4 °F - 71.6 °F 94% 30.28 in 8.0 mi Calm Calm - N/A   Mostly Cloudy
2:51 AM 73.0 °F - 71.1 °F 93% 30.29 in 6.0 mi Calm Calm - N/A   Overcast
3:51 AM 73.0 °F - 71.1 °F 93% 30.29 in 7.0 mi Calm Calm - N/A   Overcast
4:34 AM 73.4 °F - 71.6 °F 94% 30.28 in 9.0 mi Calm Calm - N/A   Overcast
4:51 AM 73.0 °F - 71.1 °F 93% 30.28 in 9.0 mi Calm Calm - N/A   Overcast
5:51 AM 73.0 °F - 71.1 °F 93% 30.29 in 3.0 mi North 3.5 mph - N/A   Overcast
6:51 AM 73.0 °F - 71.1 °F 93% 30.31 in 6.0 mi Calm Calm - N/A   Mostly Cloudy
6:58 AM 73.4 °F - 71.6 °F 94% 30.31 in 6.0 mi Calm Calm - N/A   Mostly Cloudy
7:51 AM 77.0 °F - 72.0 °F 84% 30.31 in 10.0 mi North 3.5 mph - N/A   Mostly Cloudy
8:51 AM 80.1 °F 83.8 °F 72.0 °F 76% 30.31 in 10.0 mi Calm Calm - N/A   Scattered Clouds
9:51 AM 82.9 °F 88.0 °F 72.0 °F 69% 30.30 in 10.0 mi WNW 5.8 mph - N/A   Scattered Clouds
10:51 AM 84.0 °F 89.0 °F 71.1 °F 65% 30.30 in 10.0 mi WSW 6.9 mph - N/A   Mostly Cloudy
11:51 AM 87.1 °F 92.8 °F 71.1 °F 59% 30.28 in 10.0 mi WNW 4.6 mph - N/A   Mostly Cloudy
12:51 PM 89.1 °F 92.9 °F 68.0 °F 50% 30.27 in 10.0 mi West 9.2 mph - N/A   Scattered Clouds
1:51 PM 89.1 °F 93.7 °F 69.1 °F 52% 30.25 in 10.0 mi WSW 8.1 mph - N/A   Mostly Cloudy
2:51 PM 89.1 °F 93.7 °F 69.1 °F 52% 30.24 in 10.0 mi WSW 6.9 mph - N/A   Mostly Cloudy
3:51 PM 90.0 °F 93.6 °F 68.0 °F 48% 30.22 in 10.0 mi West 5.8 mph - N/A   Mostly Cloudy
4:51 PM 90.0 °F 94.5 °F 69.1 °F 50% 30.22 in 10.0 mi NW 5.8 mph - N/A   Scattered Clouds
5:51 PM 90.0 °F 93.6 °F 68.0 °F 48% 30.21 in 10.0 mi West 6.9 mph - N/A   Scattered Clouds
6:51 PM 87.1 °F 92.0 °F 70.0 °F 57% 30.21 in 10.0 mi WSW 8.1 mph - N/A   Mostly Cloudy
7:51 PM 86.0 °F 91.5 °F 71.1 °F 61% 30.20 in 10.0 mi WSW 6.9 mph - N/A   Scattered Clouds
8:51 PM 82.9 °F 87.5 °F 71.1 °F 67% 30.21 in 10.0 mi WSW 5.8 mph - N/A   Scattered Clouds
9:51 PM 80.1 °F 83.8 °F 72.0 °F 76% 30.22 in 10.0 mi WNW 3.5 mph - N/A   Scattered Clouds
10:51 PM 77.0 °F - 72.0 °F 84% 30.22 in 10.0 mi Calm Calm - N/A   Scattered Clouds
11:51 PM 79.0 °F - 72.0 °F 79% 30.21 in 10.0 mi SSW 4.6 mph - N/A   Scattered Clouds